Flag for Turkey Weather past 2 weeks in Ankara, Turkey

Now
48 °F

Sprinkles. Passing clouds.


Feels Like: 48 °F
Forecast: 42 / 54 °F
Wind: 2 mph from North

Location: Ankara / Esenboga

Current Time: Mar 27, 2015 at 11:45:23 PM

Latest Report: Mar 27, 2015 at 10:50 PM


Visibility: N/A

Pressure: 29.92 "Hg

Humidity: 94%

Dew point: 46 °F

Location of AnkaraLocation

Historic Weather in Ankara — Graph

°F

Ankara temperature yesterday

Maximum temperature yesterday: 63 °F (at 1:50 PM)
Minimum temperature yesterday: 28 °F (at 4:20 AM)
Average temperature yesterday: 46 °F

Past Weeks' High & Low Weather Summary

 TemperatureHumidityPressure
High63 °F (Mar 26, 1:50 PM)100% (Mar 13, 1:50 AM)30.27 "Hg (Mar 13, 1:50 AM)
Low28 °F (Mar 21, 12:20 AM)23% (Mar 17, 2:50 PM)29.80 "Hg (Mar 21, 3:50 AM)
Average41 °F71%30.05 "Hg
* Reported Mar 12 10:20 PM — Mar 27 10:20 PM, Ankara, Weather by CustomWeather, © 2015

Note: Actual official high and low records may vary slightly from our data, if they occured in-between our weather recording intervals... More about our weather records

Advertising

Ankara weather history for previous 24 hours

 ConditionsComfort  
Time TempWeatherWind HumidityBarometerVisibility
10:20 PM
Fri, Mar 27
50 °FSprinkles. Passing clouds.3 mph88%29.92 "HgN/A
9:50 PM50 °FSprinkles. Passing clouds.2 mph88%29.92 "HgN/A
9:20 PM50 °FSprinkles. Passing clouds.3 mph88%29.95 "HgN/A
8:50 PM50 °FPassing clouds.6 mph88%29.95 "HgN/A
8:20 PM52 °FSprinkles. Passing clouds.6 mph82%29.95 "HgN/A
7:50 PM52 °FSprinkles. Passing clouds.7 mph88%29.95 "HgN/A
7:20 PM52 °FSprinkles. Passing clouds.6 mph88%29.98 "HgN/A
6:50 PM52 °FSprinkles. Passing clouds.7 mph88%29.95 "Hg6 mi
6:20 PM52 °FSprinkles. Passing clouds.8 mph88%29.95 "Hg6 mi
5:50 PM54 °FSprinkles. Partly sunny.5 mph82%29.95 "Hg6 mi
5:20 PM54 °FSprinkles. Partly sunny.8 mph82%29.95 "Hg5 mi
4:50 PM55 °FPartly sunny.6 mph77%29.95 "HgN/A
4:20 PM55 °FSprinkles. Partly sunny.5 mph77%29.95 "Hg5 mi
3:50 PM55 °FSprinkles. Partly sunny.8 mph77%29.95 "Hg5 mi
3:20 PM57 °FPartly sunny.7 mph67%29.98 "HgN/A
2:50 PM57 °FSprinkles. Partly sunny.9 mph67%29.98 "Hg5 mi
2:20 PM57 °FPartly sunny.10 mph67%29.98 "HgN/A
1:50 PM57 °FPartly sunny.12 mph67%29.95 "HgN/A
1:20 PM59 °FPartly sunny.15 mph63%29.98 "HgN/A
12:50 PM59 °FPartly sunny.17 mph59%30.01 "HgN/A
12:20 PM59 °FPartly sunny.13 mph51%30.01 "HgN/A
11:50 AM59 °FBroken clouds.6 mph59%29.98 "HgN/A
11:20 AM59 °FBroken clouds.6 mph55%29.98 "HgN/A
10:50 AM57 °FBroken clouds.3 mph55%29.98 "HgN/A
10:20 AM57 °FBroken clouds.3 mph59%29.98 "HgN/A
9:50 AM52 °FBroken clouds.3 mph72%29.98 "HgN/A
9:20 AM52 °FBroken clouds.5 mph82%30.01 "HgN/A
8:50 AM48 °FBroken clouds.7 mph82%30.01 "HgN/A
8:20 AM48 °FPartly sunny.6 mph82%30.01 "HgN/A
7:50 AM46 °FPartly sunny.6 mph87%30.01 "HgN/A
7:20 AM46 °FPartly sunny.9 mph87%30.01 "HgN/A
6:50 AM45 °FPartly sunny.8 mph93%30.01 "HgN/A
6:20 AM45 °FSprinkles. Partly sunny.5 mph87%30.01 "HgN/A
5:50 AM46 °FPartly sunny.5 mph76%30.01 "HgN/A
4:50 AM43 °FSprinkles. Partly cloudy.3 mph87%30.01 "HgN/A
4:20 AM46 °FPassing clouds.2 mph66%29.98 "HgN/A
3:50 AM45 °FPassing clouds.2 mph76%29.98 "HgN/A
3:20 AM43 °FPassing clouds.3 mph81%30.01 "HgN/A
2:50 AM46 °FPassing clouds.2 mph66%30.01 "HgN/A
2:20 AM45 °FPassing clouds.3 mph71%30.01 "HgN/A
1:50 AM45 °FPassing clouds.2 mph71%30.04 "HgN/A
1:20 AM45 °FPassing clouds.1 mph66%30.04 "HgN/A
12:50 AM45 °FPassing clouds.1 mph71%30.04 "HgN/A
12:20 AM45 °FPassing clouds.2 mph71%30.04 "HgN/A
11:50 PM
Thu, Mar 26
45 °FPassing clouds.3 mph71%30.07 "HgN/A
11:20 PM46 °FPassing clouds.2 mph62%30.07 "HgN/A
Weather by CustomWeather, © 2015

See weather overviewHow to use our weather pages